Tracking 29606 objects as of 18-Sep-2024
HD Live streaming from Space Station
objects crossing your sky now

FLOCK 4Q 23

Track FLOCK 4Q 23 now!
10-day predictions
FLOCK 4Q 23 is classified as:


NORAD ID: 58307
Int'l Code: 2023-174BD
Perigee: 496.4 km
Apogee: 511.0 km
Inclination: 97.5 °
Period: 94.5 minutes
Semi major axis: 6874 km
RCS: Unknown
Launch date: November 11, 2023
Source: United States (US)
Launch site: AIR FORCE WESTERN TEST RANGE (AFWTR)
Your satellite tracking list
Your tracking list is empty




NASA's NSSDC Master Catalog

Two Line Element Set (TLE):
1 58307U 23174BD  24261.78201790  .00054621  00000-0  23024-2 0  9990
2 58307  97.4537 335.7512 0010631 258.4413 101.5630 15.23074679 47791
Source of the keplerian elements: AFSPC